Hourly Weather Kakanj

Today, 9 March, Tuesday

Time Temperature Precipitation Wind Pressure Humidity
00:00 +3°C° 0 mm 1 mps 723 mmHg 78%
01:00 +3°C° 0 mm 1 mps 723 mmHg 80%
02:00 +3°C° 0 mm 1 mps 723 mmHg 80%
03:00 +3°C° 0 mm 1 mps 723 mmHg 80%
04:00 +3°C° 0 mm 1 mps 723 mmHg 81%
05:00 +3°C° 0 mm 1 mps 723 mmHg 79%
06:00 +3°C° 0 mm 1 mps 723 mmHg 78%
07:00 +3°C° 0 mm 1 mps 723 mmHg 76%
08:00 +4°C° 0 mm 1 mps 723 mmHg 70%
09:00 +5°C° 0 mm 1 mps 723 mmHg 64%
10:00 +7°C° 0 mm 1 mps 723 mmHg 58%
11:00 +7°C° 0 mm 1 mps 722 mmHg 59%
12:00 +7°C° 0 mm 1 mps 722 mmHg 60%
13:00 +7°C° 0 mm 1 mps 721 mmHg 60%
14:00 +7°C° 0.3 mm 1 mps 721 mmHg 68%
15:00 +6°C° 0.3 mm 1 mps 721 mmHg 75%
16:00 +5°C° 0.3 mm 1 mps 721 mmHg 83%
17:00 +5°C° 0.6 mm 1 mps 720 mmHg 87%
18:00 +4°C° 0.6 mm 1 mps 720 mmHg 91%
19:00 +4°C° 0.6 mm 1 mps 720 mmHg 95%
20:00 +3°C° 0.6 mm 1 mps 720 mmHg 95%
21:00 +3°C° 0.6 mm 1 mps 720 mmHg 96%
22:00 +3°C° 0.6 mm 1 mps 720 mmHg 96%
23:00 +3°C° 0.8 mm 1 mps 720 mmHg 96%

Tomorrow, 10 March, Wednesday

Time Temperature Precipitation Wind Pressure Humidity
00:00 +3°C° 0.8 mm 1 mps 720 mmHg 97%
01:00 +3°C° 0.8 mm 1 mps 720 mmHg 97%
02:00 +2°C° 1 mm 2 mps 720 mmHg 97%
03:00 +1°C° 1 mm 2 mps 720 mmHg 97%
04:00 +1°C° 1 mm 2 mps 720 mmHg 97%
05:00 +1°C° 0.8 mm 2 mps 720 mmHg 97%
06:00 +1°C° 0.8 mm 2 mps 720 mmHg 97%
07:00 +1°C° 0.8 mm 2 mps 720 mmHg 96%
08:00 +1°C° 0.6 mm 2 mps 721 mmHg 96%
09:00 +2°C° 0.6 mm 2 mps 721 mmHg 95%
10:00 +2°C° 0.6 mm 2 mps 722 mmHg 95%
11:00 +2°C° 0.4 mm 2 mps 722 mmHg 95%
12:00 +2°C° 0.4 mm 2 mps 722 mmHg 95%
13:00 +3°C° 0.4 mm 2 mps 722 mmHg 95%
14:00 +2°C° 0.3 mm 2 mps 722 mmHg 94%
15:00 +2°C° 0.3 mm 2 mps 722 mmHg 93%
16:00 +2°C° 0.3 mm 2 mps 722 mmHg 92%
17:00 +1°C° 0.1 mm 2 mps 722 mmHg 93%
18:00 +1°C° 0.1 mm 1 mps 722 mmHg 93%
19:00 0°C° 0.1 mm 1 mps 723 mmHg 94%
20:00 -1°C° 0 mm 1 mps 723 mmHg 92%
21:00 -1°C° 0 mm 1 mps 724 mmHg 91%
22:00 -2°C° 0 mm 1 mps 724 mmHg 89%
23:00 -2°C° 0 mm 1 mps 724 mmHg 88%

Day after tomorrow, 11 March, Thursday

Time Temperature Precipitation Wind Pressure Humidity
00:00 -3°C° 0 mm 0 mps 725 mmHg 87%
01:00 -3°C° 0 mm 0 mps 725 mmHg 86%
02:00 -3°C° 0 mm 0 mps 725 mmHg 86%
03:00 -3°C° 0 mm 0 mps 725 mmHg 86%
04:00 -4°C° 0 mm 0 mps 725 mmHg 86%
05:00 -3°C° 0 mm 0 mps 725 mmHg 85%
06:00 -2°C° 0 mm 1 mps 725 mmHg 85%
07:00 -1°C° 0 mm 1 mps 726 mmHg 84%
08:00 +1°C° 0 mm 1 mps 726 mmHg 81%
09:00 +3°C° 0 mm 1 mps 726 mmHg 78%
10:00 +5°C° 0 mm 1 mps 726 mmHg 75%
11:00 +6°C° 0 mm 1 mps 726 mmHg 72%
12:00 +7°C° 0 mm 1 mps 726 mmHg 69%
13:00 +8°C° 0 mm 1 mps 726 mmHg 67%
14:00 +8°C° 0 mm 1 mps 725 mmHg 68%
15:00 +8°C° 0 mm 1 mps 725 mmHg 70%
16:00 +8°C° 0 mm 1 mps 725 mmHg 72%
17:00 +6°C° 0 mm 1 mps 725 mmHg 75%
18:00 +4°C° 0 mm 2 mps 725 mmHg 78%
19:00 +2°C° 0 mm 2 mps 725 mmHg 81%
20:00 +2°C° 0 mm 2 mps 725 mmHg 81%
21:00 +2°C° 0 mm 2 mps 725 mmHg 81%
22:00 +2°C° 0 mm 2 mps 725 mmHg 82%
23:00 +2°C° 0 mm 2 mps 725 mmHg 81%

12 March, Friday

Time Temperature Precipitation Wind Pressure Humidity
00:00 +2°C° 0 mm 2 mps 725 mmHg 81%
01:00 +2°C° 0 mm 2 mps 725 mmHg 81%
02:00 +2°C° 0 mm 2 mps 724 mmHg 82%
03:00 +2°C° 0 mm 2 mps 724 mmHg 82%
04:00 +2°C° 0 mm 2 mps 724 mmHg 83%
05:00 +2°C° 0 mm 2 mps 724 mmHg 83%
06:00 +2°C° 0 mm 2 mps 724 mmHg 83%
07:00 +4°C° 0 mm 1 mps 725 mmHg 83%
08:00 +4°C° 0 mm 2 mps 725 mmHg 81%
09:00 +6°C° 0 mm 2 mps 725 mmHg 79%
10:00 +7°C° 0 mm 2 mps 725 mmHg 77%
11:00 +8°C° 0 mm 2 mps 725 mmHg 76%
12:00 +9°C° 0 mm 2 mps 725 mmHg 74%
13:00 +10°C° 0 mm 2 mps 725 mmHg 72%
14:00 +10°C° 0 mm 2 mps 724 mmHg 75%
15:00 +9°C° 0 mm 2 mps 724 mmHg 77%
16:00 +9°C° 0 mm 2 mps 723 mmHg 80%
17:00 +7°C° 0 mm 2 mps 723 mmHg 84%
18:00 +6°C° 0 mm 2 mps 723 mmHg 88%
19:00 +5°C° 0 mm 2 mps 722 mmHg 91%
20:00 +5°C° 0 mm 2 mps 722 mmHg 92%
21:00 +5°C° 0 mm 2 mps 722 mmHg 92%
22:00 +5°C° 0 mm 2 mps 722 mmHg 93%
23:00 +4°C° 0 mm 3 mps 722 mmHg 93%

13 March, Saturday

Time Temperature Precipitation Wind Pressure Humidity
00:00 +3°C° 0 mm 3 mps 722 mmHg 93%
01:00 +3°C° 0 mm 3 mps 722 mmHg 92%
02:00 +4°C° 0.1 mm 2 mps 721 mmHg 93%
03:00 +4°C° 0.1 mm 2 mps 721 mmHg 94%
04:00 +4°C° 0.1 mm 2 mps 721 mmHg 95%
05:00 +5°C° 0.3 mm 1 mps 721 mmHg 95%
06:00 +5°C° 0.3 mm 1 mps 722 mmHg 95%
07:00 +6°C° 0.3 mm 1 mps 722 mmHg 95%
08:00 +6°C° 0.2 mm 1 mps 723 mmHg 94%
09:00 +6°C° 0.2 mm 0 mps 723 mmHg 94%
10:00 +6°C° 0.2 mm 0 mps 724 mmHg 93%
11:00 +9°C° 0 mm 1 mps 724 mmHg 89%
12:00 +10°C° 0 mm 1 mps 724 mmHg 86%
13:00 +11°C° 0 mm 1 mps 723 mmHg 82%
14:00 +12°C° 0 mm 1 mps 723 mmHg 81%
15:00 +12°C° 0 mm 1 mps 723 mmHg 80%
16:00 +12°C° 0 mm 1 mps 722 mmHg 79%
17:00 +11°C° 0 mm 1 mps 722 mmHg 84%
18:00 +9°C° 0 mm 1 mps 722 mmHg 88%
19:00 +6°C° 0 mm 2 mps 722 mmHg 93%
20:00 +6°C° 0 mm 2 mps 722 mmHg 94%
21:00 +6°C° 0 mm 2 mps 722 mmHg 94%
22:00 +6°C° 0 mm 1 mps 722 mmHg 94%
23:00 +6°C° 0 mm 1 mps 722 mmHg 94%

14 March, Sunday

Time Temperature Precipitation Wind Pressure Humidity
00:00 +6°C° 0 mm 1 mps 721 mmHg 94%
01:00 +5°C° 0 mm 1 mps 721 mmHg 93%
02:00 +5°C° 0 mm 1 mps 720 mmHg 93%
03:00 +4°C° 0 mm 2 mps 720 mmHg 93%
04:00 +4°C° 0 mm 2 mps 719 mmHg 93%
05:00 +4°C° 0 mm 2 mps 719 mmHg 93%
06:00 +4°C° 0 mm 2 mps 718 mmHg 92%
07:00 +5°C° 0 mm 2 mps 718 mmHg 92%
08:00 +6°C° 0 mm 2 mps 718 mmHg 88%
09:00 +8°C° 0 mm 2 mps 717 mmHg 83%
10:00 +10°C° 0 mm 2 mps 717 mmHg 79%
11:00 +12°C° 0 mm 2 mps 717 mmHg 77%
12:00 +12°C° 0 mm 2 mps 716 mmHg 75%
13:00 +13°C° 0 mm 2 mps 716 mmHg 73%
14:00 +13°C° 0.1 mm 2 mps 716 mmHg 75%
15:00 +12°C° 0.1 mm 2 mps 715 mmHg 76%
16:00 +12°C° 0.1 mm 2 mps 715 mmHg 77%
17:00 +10°C° 0.3 mm 2 mps 715 mmHg 83%
18:00 +8°C° 0.3 mm 2 mps 715 mmHg 89%
19:00 +8°C° 0.3 mm 1 mps 715 mmHg 95%
20:00 +6°C° 0.6 mm 2 mps 716 mmHg 95%
21:00 +5°C° 0.6 mm 2 mps 716 mmHg 96%
22:00 +3°C° 0.6 mm 3 mps 716 mmHg 96%
23:00 +3°C° 1 mm 3 mps 716 mmHg 96%
Show more

We Need Your Consent

Meteoprog and our Service Providers may store and access personal data such as cookies, device identifiers or other similar technologies on your device and process such data to personalise content and ads, as well as provide social media features and to analyse the traffic.

  • Store and/or access information on your device

    Cookies, device identifiers or other information can be stored or accessed on your device for the purposes indicated above.

  • Personalised ads and content, ad and content measurement, audience insights, and products development

    Ads and content can be personalised based on a profile. More data can be added to better personalise ads and content. Ad and content performance can be measured. Insights about the audience who saw the ads and content can be derived. Such data can be used to develop or improve user’s experience, systems and software.

By clicking ‘I Agree’ you will allow the use of indicated cookies, device identifiers, web beacons or other similar technologies. Your settings can be changed in the browser on your device.

For certain purposes, legitimate interests may be relied on, rather than consent. You can read more about this in our Privacy and Cookie Policy.